Location: Sweetwater (historical)
(38.4624°N, 119.1749°W)
Time: 13:43:02
(UTC+00:00)

SAR-Lupe-4 - Pass Details

Date: 13 August 2020
Orbit: 481 x 485 km, 98.2° (Epoch: 16 September)

Event Time Altitude Azimuth Distance (km) Brightness Sun altitude
Rises 12:39:59 0° 177° (S) 2,526 7.0 -6.3°
Reaches altitude 10° 12:42:04 10° 183° (S) 1,652 6.0 -5.9°
Maximum altitude 12:45:31 49° 259° (W) 629 3.8 -5.3°
Drops below altitude 10° 12:49:00 10° 336° (NNW) 1,666 6.3 -4.6°
Sets 12:51:07 0° 342° (NNW) 2,550 7.3 -4.3°
